GW6941 Weather Reports


time (UTC)temp
C
wind
direction
speed
KPH
gust
KPH
rain 1hr
cm
rain 24hr
cm
rain mn
cm
humidity
%
barometer
mb
20260506015449 17 327 0.0 1.6 0.00 0.00 0.00 66 1017.4
20260506014946 17 327 0.0 0.0 0.00 0.00 0.00 68 1017.8
20260506014442 17 327 0.0 1.6 0.00 0.00 0.00 67 1017.5
20260506013939 17 330 3.2 3.2 0.00 0.00 0.00 68 1017.6
20260506013437 17 324 0.0 0.0 0.00 0.00 0.00 70 1017.5
20260506012933 17 324 0.0 1.6 0.00 0.00 0.00 69 1017.4
20260506012430 17 346 0.0 1.6 0.00 0.00 0.00 69 1017.4
20260506011927 17 295 1.6 1.6 0.00 0.00 0.00 69 1017.5
20260506011424 17 295 0.0 0.0 0.00 0.00 0.00 68 1017.5
20260506010921 17 295 0.0 0.0 0.00 0.00 0.00 68 1017.4
20260506010420 17 295 0.0 1.6 0.00 0.00 0.00 67 1017.6
20260506005915 17 295 0.0 0.0 0.00 0.00 0.00 69 1017.5
20260506005414 17 295 0.0 0.0 0.00 0.00 0.00 69 1017.4
20260506004908 16 296 0.0 0.0 0.00 0.00 0.00 71 1017.4
20260506004407 17 296 0.0 0.0 0.00 0.00 0.00 70 1017.5
20260506003902 16 294 0.0 1.6 0.00 0.00 0.00 69 1017.5
20260506003359 16 303 0.0 0.0 0.00 0.00 0.00 70 1017.5
20260506002855 17 291 0.0 1.6 0.00 0.00 0.00 73 1017.6
20260506002351 16 290 0.0 0.0 0.00 0.00 0.00 68 1017.6
20260506001847 16 290 0.0 0.0 0.00 0.00 0.00 68 1017.8
20260506001344 17 290 1.6 1.6 0.00 0.00 0.00 71 1017.8
20260506000841 17 291 0.0 0.0 0.00 0.00 0.00 69 1017.8
20260506000340 17 323 0.0 1.6 0.00 0.00 0.00 71 1017.8
20260505235836 17 282 0.0 0.0 0.00 0.00 0.00 69 1017.8
20260505235333 17 282 0.0 3.2 0.00 0.00 0.00 68 1018.0
20260505234830 17 341 0.0 1.6 0.00 0.00 0.00 70 1018.1
20260505234328 17 25 0.0 0.0 0.00 0.00 0.00 70 1017.9
20260505233825 17 14 0.0 0.0 0.00 0.00 0.00 71 1018.0
20260505233322 17 18 1.6 1.6 0.00 0.00 0.00 67 1018.2
20260505232819 17 290 0.0 3.2 0.00 0.00 0.00 70 1017.9
20260505232317 17 3 1.6 1.6 0.00 0.00 0.00 70 1018.1
20260505231814 17 351 1.6 1.6 0.00 0.00 0.00 70 1018.2
20260505231312 17 73 0.0 1.6 0.00 0.00 0.00 68 1018.0
20260505230810 16 80 0.0 3.2 0.00 0.00 0.00 69 1018.0
20260505230307 17 276 3.2 3.2 0.00 0.00 0.00 68 1018.1
20260505225803 17 291 0.0 3.2 0.00 0.00 0.00 70 1018.2
20260505225300 17 246 1.6 1.6 0.00 0.00 0.00 69 1018.1
20260505224755 16 292 1.6 1.6 0.00 0.00 0.00 68 1018.2
20260505224253 17 306 3.2 4.8 0.00 0.00 0.00 68 1018.1
20260505223750 17 272 1.6 1.6 0.00 0.00 0.00 71 1018.1
20260505223247 17 270 3.2 3.2 0.00 0.00 0.00 69 1018.2
20260505222743 17 262 1.6 1.6 0.00 0.00 0.00 69 1018.3
20260505222239 16 272 0.0 3.2 0.00 0.00 0.00 71 1018.4
20260505221736 17 216 3.2 3.2 0.00 0.00 0.00 69 1018.4
20260505221233 17 224 0.0 4.8 0.00 0.00 0.00 70 1018.5
20260505220730 17 281 0.0 1.6 0.00 0.00 0.00 69 1018.1
20260505220227 17 290 1.6 4.8 0.00 0.00 0.00 69 1018.4
20260505215725 17 353 0.0 0.0 0.00 0.00 0.00 71 1018.4
20260505215223 17 214 3.2 3.2 0.00 0.00 0.00 69 1018.5
20260505214720 16 300 0.0 1.6 0.00 0.00 0.00 73 1018.4
20260505214218 16 300 3.2 4.8 0.00 0.00 0.00 69 1018.4
20260505213715 16 212 0.0 1.6 0.00 0.00 0.00 70 1018.4
20260505213212 16 278 1.6 3.2 0.00 0.00 0.00 70 1018.4
20260505212708 16 284 0.0 1.6 0.00 0.00 0.00 71 1018.5
20260505212206 16 280 0.0 0.0 0.00 0.00 0.00 72 1018.6
20260505211702 16 282 1.6 1.6 0.00 0.00 0.00 70 1018.5
20260505211159 16 33 0.0 1.6 0.00 0.00 0.00 75 1018.6
20260505210656 16 32 3.2 3.2 0.00 0.00 0.00 71 1018.5
20260505210153 16 358 0.0 0.0 0.00 0.00 0.00 73 1018.7
20260505205650 16 354 1.6 1.6 0.00 0.00 0.00 72 1018.7
20260505205148 16 305 4.8 4.8 0.00 0.00 0.00 71 1018.7
20260505204644 16 292 3.2 4.8 0.00 0.00 0.00 71 1018.8
20260505204143 16 333 1.6 4.8 0.00 0.00 0.00 73 1018.6
20260505203640 16 129 0.0 1.6 0.00 0.00 0.00 72 1018.5
20260505203136 16 127 1.6 3.2 0.00 0.00 0.00 72 1018.7
20260505202632 16 73 1.6 1.6 0.00 0.00 0.00 73 1018.8
20260505202128 16 31 0.0 3.2 0.00 0.00 0.00 72 1018.8
20260505201625 16 43 6.4 6.4 0.00 0.00 0.00 70 1019.0
20260505201123 16 348 0.0 1.6 0.00 0.00 0.00 71 1019.1
20260505200621 16 310 0.0 1.6 0.00 0.00 0.00 70 1019.1
20260505200118 16 240 0.0 1.6 0.00 0.00 0.00 72 1018.9
20260505195614 16 268 1.6 3.2 0.00 0.00 0.00 72 1019.0
20260505195111 16 240 3.2 3.2 0.00 0.00 0.00 72 1018.8
20260505194608 16 22 0.0 0.0 0.00 0.00 0.00 74 1019.1
20260505194104 16 16 3.2 3.2 0.00 0.00 0.00 71 1019.0
20260505193601 16 246 1.6 3.2 0.00 0.00 0.00 73 1019.1
20260505193058 16 239 3.2 3.2 0.00 0.00 0.00 73 1018.9
20260505192557 16 336 0.0 1.6 0.00 0.00 0.00 71 1019.2
20260505192054 16 207 4.8 4.8 0.00 0.00 0.00 70 1019.1
20260505191552 16 193 3.2 3.2 0.00 0.00 0.00 71 1019.0
20260505191049 16 305 0.0 3.2 0.00 0.00 0.00 71 1018.9
20260505190544 15 39 0.0 1.6 0.00 0.00 0.00 72 1019.0
20260505190040 15 34 0.0 1.6 0.00 0.00 0.00 72 1018.9
20260505185537 15 12 0.0 0.0 0.00 0.00 0.00 74 1019.1
20260505185033 15 267 1.6 1.6 0.00 0.00 0.00 76 1019.1
20260505184530 15 307 0.0 3.2 0.00 0.00 0.00 74 1019.0
20260505184027 15 293 0.0 3.2 0.00 0.00 0.00 76 1019.1
20260505183524 15 315 1.6 3.2 0.00 0.00 0.00 75 1019.2
20260505183021 14 217 1.6 3.2 0.00 0.00 0.00 75 1018.9
20260505182517 15 138 0.0 4.8 0.00 0.00 0.00 75 1019.1
20260505182014 15 173 1.6 3.2 0.00 0.00 0.00 75 1018.9
20260505181511 14 236 0.0 0.0 0.00 0.00 0.00 77 1018.9
20260505181008 14 268 1.6 3.2 0.00 0.00 0.00 76 1019.0
20260505180504 14 203 0.0 3.2 0.00 0.00 0.00 78 1019.0
20260505180002 14 270 0.0 3.2 0.00 0.00 0.00 79 1019.0
20260505175457 14 177 1.6 4.8 0.00 0.00 0.00 79 1019.0
20260505174954 13 234 1.6 4.8 0.00 0.00 0.00 79 1019.1
20260505174451 13 145 3.2 4.8 0.00 0.00 0.00 79 1019.0
20260505173947 13 171 1.6 4.8 0.00 0.00 0.00 79 1018.9
20260505173443 13 142 4.8 4.8 0.00 0.00 0.00 79 1018.9
20260505172940 13 226 1.6 4.8 0.00 0.00 0.00 78 1018.9
20260505172439 13 236 0.0 3.2 0.00 0.00 0.00 80 1018.8
20260505171938 14 227 3.2 4.8 0.00 0.00 0.00 80 1018.7
20260505171435 14 281 0.0 3.2 0.00 0.00 0.00 81 1018.8
20260505170932 13 240 0.0 1.6 0.00 0.00 0.00 80 1018.7
20260505170428 13 257 1.6 4.8 0.00 0.00 0.00 81 1018.8
20260505165924 13 199 3.2 4.8 0.00 0.00 0.00 81 1018.7
20260505165420 13 162 3.2 4.8 0.00 0.00 0.00 82 1018.6
20260505164915 13 273 6.4 6.4 0.00 0.00 0.00 82 1018.8
20260505164413 13 217 0.0 1.6 0.00 0.00 0.00 84 1018.7
20260505163911 13 161 0.0 1.6 0.00 0.00 0.00 83 1018.7
20260505163409 13 268 1.6 1.6 0.00 0.00 0.00 84 1018.8
20260505162908 13 209 3.2 4.8 0.00 0.00 0.00 83 1018.6
20260505162403 13 160 1.6 4.8 0.00 0.00 0.00 87 1018.5
20260505161900 12 170 3.2 3.2 0.00 0.00 0.00 85 1018.6
20260505161357 12 195 0.0 1.6 0.00 0.00 0.00 86 1018.5
20260505160854 12 218 1.6 3.2 0.00 0.00 0.00 87 1018.5
20260505160353 12 229 1.6 1.6 0.00 0.00 0.00 88 1018.5
20260505153331 11 203 0.0 3.2 0.00 0.00 0.00 90 1018.5
20260505152828 11 154 3.2 4.8 0.00 0.00 0.00 90 1018.5
20260505152325 11 214 1.6 1.6 0.00 0.00 0.00 90 1018.5
20260505151825 11 231 1.6 1.6 0.00 0.00 0.00 91 1018.6
20260505151322 11 239 1.6 1.6 0.00 0.00 0.00 91 1018.5
20260505150819 11 232 1.6 1.6 0.00 0.00 0.00 92 1018.6
20260505150317 11 216 1.6 1.6 0.00 0.00 0.00 92 1018.3
20260505140246 11 265 0.0 0.0 0.00 0.00 0.00 90 1017.9
20260505130210 11 221 0.0 3.2 0.00 0.00 0.00 87 1017.4
20260505124700 11 178 1.6 3.2 0.00 0.00 0.00 86 1017.3
20260505124157 11 181 3.2 3.2 0.00 0.00 0.00 87 1017.2
20260505123653 11 225 0.0 1.6 0.00 0.00 0.00 86 1017.1
20260505123150 11 212 1.6 1.6 0.00 0.00 0.00 86 1017.4
20260505122646 11 179 0.0 3.2 0.00 0.00 0.00 86 1017.5
20260505122143 11 160 0.0 3.2 0.00 0.00 0.00 86 1017.3
20260505121640 11 225 3.2 3.2 0.00 0.00 0.00 86 1017.4
20260505121137 11 231 6.4 6.4 0.00 0.00 0.00 86 1017.1
20260505120634 11 195 1.6 4.8 0.00 0.00 0.00 86 1017.1
20260505120130 11 274 0.0 4.8 0.00 0.00 0.00 86 1017.3
20260505115629 11 180 3.2 4.8 0.00 0.00 0.00 86 1017.3
20260505115127 11 224 0.0 1.6 0.00 0.00 0.00 86 1017.1
20260505114624 11 216 0.0 6.4 0.00 0.00 0.00 86 1017.2
20260505114120 11 223 3.2 3.2 0.00 0.00 0.00 86 1017.3
20260505113617 11 242 0.0 1.6 0.00 0.00 0.00 87 1017.1
20260505113114 11 255 0.0 0.0 0.00 0.00 0.00 87 1017.3
20260505112610 11 279 1.6 3.2 0.00 0.00 0.00 87 1017.0
20260505112109 11 223 0.0 4.8 0.00 0.00 0.00 86 1017.0
20260505111607 11 208 1.6 4.8 0.00 0.00 0.00 86 1017.0
20260505111103 11 227 4.8 9.7 0.00 0.00 0.00 86 1017.1
20260505110600 11 219 1.6 1.6 0.00 0.00 0.00 86 1017.0
20260505102033 11 208 3.2 4.8 0.00 0.00 0.00 86 1016.7
20260505101531 11 224 3.2 3.2 0.00 0.00 0.00 86 1016.7
20260505101027 11 167 1.6 3.2 0.00 0.00 0.00 85 1016.6
20260505100524 11 230 3.2 4.8 0.00 0.00 0.00 85 1016.8
20260505100021 11 225 6.4 6.4 0.00 0.00 0.00 85 1016.6
20260505095517 11 189 1.6 3.2 0.00 0.00 0.00 86 1016.7
20260505095014 11 187 0.0 3.2 0.00 0.00 0.00 85 1016.6
20260505094510 11 223 1.6 4.8 0.00 0.00 0.00 86 1016.8
20260505094007 11 236 1.6 3.2 0.00 0.00 0.00 86 1016.5
20260505093503 11 188 1.6 3.2 0.00 0.00 0.00 86 1016.5
20260505093000 11 171 8.0 9.7 0.00 0.00 0.00 86 1016.5
20260505092458 11 217 0.0 1.6 0.00 0.00 0.00 86 1016.4
20260505091955 11 216 0.0 1.6 0.00 0.00 0.00 87 1016.3
20260505091453 11 246 0.0 3.2 0.00 0.00 0.00 87 1016.4
20260505090951 11 232 1.6 1.6 0.00 0.00 0.00 87 1016.5
20260505090449 11 198 1.6 3.2 0.00 0.00 0.00 87 1016.4
20260505085945 11 166 0.0 1.6 0.00 0.00 0.00 87 1016.4
20260505085443 11 171 3.2 4.8 0.00 0.00 0.00 86 1016.2
20260505084942 11 221 3.2 4.8 0.00 0.00 0.00 86 1016.3
20260505084440 11 201 3.2 3.2 0.00 0.00 0.00 85 1016.3
20260505083937 11 188 1.6 3.2 0.00 0.00 0.00 85 1016.2
20260505083434 11 206 3.2 6.4 0.00 0.00 0.00 85 1016.2
20260505082930 11 166 3.2 6.4 0.00 0.00 0.00 85 1016.3
20260505082426 11 221 6.4 6.4 0.00 0.00 0.00 84 1016.3
20260505081923 11 244 0.0 3.2 0.00 0.00 0.00 84 1016.1
20260505081420 11 213 1.6 3.2 0.00 0.00 0.00 84 1016.1
20260505080917 12 214 1.6 4.8 0.00 0.00 0.00 84 1016.0
20260505080413 12 228 1.6 3.2 0.00 0.00 0.00 83 1016.2
20260505075908 12 223 6.4 9.7 0.00 0.00 0.00 83 1016.0
20260505075405 12 252 1.6 6.4 0.00 0.00 0.00 83 1015.8
20260505074903 12 171 6.4 11.3 0.00 0.00 0.00 83 1016.1
20260505074400 12 213 8.0 17.7 0.00 0.00 0.00 83 1015.9
20260505073857 12 233 1.6 4.8 0.00 0.00 0.00 83 1015.9
20260505073355 12 210 6.4 9.7 0.00 0.00 0.00 83 1015.8
20260505072852 12 189 4.8 6.4 0.00 0.00 0.00 83 1015.8
20260505072348 12 182 4.8 11.3 0.00 0.00 0.00 83 1015.5
20260505071844 12 186 3.2 4.8 0.00 0.00 0.00 82 1015.6
20260505071340 12 216 1.6 9.7 0.00 0.00 0.00 82 1015.3
20260505070839 12 225 4.8 14.5 0.00 0.00 0.00 81 1015.3
20260505070335 12 231 3.2 9.7 0.00 0.00 0.00 81 1015.3
20260505065830 12 216 3.2 4.8 0.00 0.00 0.00 81 1015.1
20260505065327 12 221 14.5 20.9 0.00 0.00 0.00 80 1015.3
20260505064824 12 202 9.7 12.9 0.00 0.00 0.00 80 1015.2
20260505064321 12 187 8.0 14.5 0.00 0.00 0.00 80 1015.2
20260505063819 12 225 1.6 12.9 0.00 0.00 0.00 79 1015.0
20260505063315 12 169 8.0 11.3 0.00 0.00 0.00 79 1015.2
20260505062812 12 254 6.4 9.7 0.00 0.00 0.00 79 1014.9
20260505062309 13 169 8.0 11.3 0.00 0.00 0.00 78 1015.0
20260505061806 13 201 8.0 11.3 0.00 0.00 0.00 78 1015.0
20260505061304 13 180 6.4 11.3 0.00 0.00 0.00 78 1015.0
20260505060801 13 227 9.7 12.9 0.00 0.00 0.00 78 1014.8
20260505060258 13 233 3.2 6.4 0.00 0.00 0.00 77 1014.9
20260505055753 13 234 6.4 9.7 0.00 0.00 0.00 77 1014.8
20260505055250 13 215 8.0 9.7 0.00 0.00 0.00 77 1014.8
20260505054747 13 229 1.6 11.3 0.00 0.00 0.00 77 1014.9
20260505054245 13 158 4.8 6.4 0.00 0.00 0.00 76 1014.8
20260505053743 14 231 1.6 9.7 0.00 0.00 0.00 76 1014.8
20260505053239 14 220 1.6 4.8 0.00 0.00 0.00 76 1014.7
20260505052737 15 229 8.0 9.7 0.00 0.00 0.00 75 1014.7
20260505052233 15 191 3.2 17.7 0.00 0.00 0.00 75 1014.7
20260505051730 15 243 4.8 11.3 0.00 0.00 0.00 75 1014.8
20260505051229 15 217 1.6 9.7 0.00 0.00 0.00 75 1014.6
20260505050726 15 190 4.8 12.9 0.00 0.00 0.00 74 1014.6
20260505050224 15 190 6.4 12.9 0.00 0.00 0.00 73 1014.6
20260505041654 17 222 8.0 11.3 0.00 0.00 0.00 70 1013.8
20260505041151 17 208 4.8 9.7 0.00 0.00 0.00 69 1013.7
20260505040648 17 221 1.6 11.3 0.00 0.00 0.00 69 1013.7
20260505040145 17 208 8.0 14.5 0.00 0.00 0.00 67 1013.5
20260505035642 18 223 8.0 16.1 0.00 0.00 0.00 66 1013.4
20260505035138 18 205 6.4 6.4 0.00 0.00 0.00 67 1013.2
20260505034635 18 247 6.4 11.3 0.00 0.00 0.00 67 1013.2
20260505034132 18 208 4.8 11.3 0.00 0.00 0.00 67 1013.2
20260505033628 18 220 4.8 11.3 0.00 0.00 0.00 66 1013.2
20260505033127 18 208 0.0 6.4 0.00 0.00 0.00 67 1013.0
20260505032624 19 224 4.8 12.9 0.00 0.00 0.00 67 1013.2
20260505032121 19 213 4.8 11.3 0.00 0.00 0.00 67 1013.0
20260505031618 19 207 0.0 11.3 0.00 0.00 0.00 68 1013.0
20260505031114 19 229 6.4 9.7 0.00 0.00 0.00 69 1012.9
20260505030611 18 225 3.2 4.8 0.00 0.00 0.00 70 1012.9
20260505030106 18 189 0.0 1.6 0.00 0.00 0.00 72 1012.6
20260505025602 19 187 1.6 3.2 0.00 0.00 0.00 71 1012.9
20260505025102 19 187 3.2 3.2 0.00 0.00 0.00 69 1012.9
20260505024559 20 169 1.6 4.8 0.00 0.00 0.00 67 1012.7
20260505024056 20 170 1.6 6.4 0.00 0.00 0.00 66 1012.9
20260505023553 20 200 4.8 9.7 0.00 0.00 0.00 65 1012.7
20260505023051 20 192 1.6 1.6 0.00 0.00 0.00 66 1012.7
20260505022548 20 219 4.8 9.7 0.00 0.00 0.00 63 1012.6
20260505022045 20 224 3.2 9.7 0.00 0.00 0.00 64 1012.8
20260505021542 21 170 3.2 11.3 0.00 0.00 0.00 63 1012.9
20260505021038 21 160 3.2 6.4 0.00 0.00 0.00 63 1012.8
20260505020538 21 225 3.2 9.7 0.00 0.00 0.00 62 1012.6
20260505020035 21 198 6.4 6.4 0.00 0.00 0.00 62 1012.7
20260505015533 21 224 3.2 6.4 0.00 0.00 0.00 63 1012.7